+ View the NASA Portal
+ Center for Near-Earth Object Studies
IMPORTANT:
The SSD Announcement email list is now available. Major changes are coming in the near future, including possible hostname and/or URL changes. To be notified of such changes, subscribe to this email list.
Please visit
this page
for more details.
Don't show this message again
JPL Small-Body Database Browser
Search:
[
help
]
379705 (2011 FC144)
Classification:
Main-belt Asteroid
SPK-ID:
2379705
[
Ephemeris
|
Orbit Diagram
|
Orbital Elements
|
Mission Design
|
Physical Parameters
|
Discovery Circumstances
|
Close-Approach Data
]
[ show orbit diagram ]
Orbital Elements at Epoch 2458600.5 (2019-Apr-27.0) TDB
Reference:
JPL 13
(heliocentric ecliptic J2000)
Element
Value
Uncertainty (1-sigma)
Units
e
.05950330869894677
8.5286e-08
a
2.63670988540713
3.2113e-08
au
q
2.479816923146185
2.4016e-07
au
i
6.166059999546535
9.0193e-06
deg
node
15.37531107232701
6.5792e-05
deg
peri
108.2211226374132
0.00011986
deg
M
23.29430993263119
9.2117e-05
deg
t
p
2458499.309603707891
(2019-Jan-15.80960371)
0.000401
TDB
period
1563.838670066339
4.28
2.8569e-05
7.822e-08
d
yr
n
.230202774039811
4.2055e-09
deg/d
Q
2.793602847668075
3.4024e-08
au
Orbit Determination Parameters
# obs. used (total)
122
data-arc span
8093 days (22.16 yr)
first obs. used
1996-12-09
last obs. used
2019-02-05
planetary ephem.
DE431
SB-pert. ephem.
SB431-N16
condition code
0
norm. resid. RMS
.67637
source
ORB
producer
Otto Matic
solution date
2019-Jul-14 14:02:07
Additional Information
Earth MOID
= 1.50375 au
Jupiter MOID
= 2.23495 au
T_jup
= 3.386
[ show covariance matrix ]
[
Ephemeris
|
Orbit Diagram
|
Orbital Elements
|
Mission Design
|
Physical Parameters
|
Discovery Circumstances
|
Close-Approach Data
]
Physical Parameter Table
Parameter
Symbol
Value
Units
Sigma
Reference
Notes
absolute magnitude
H
17.0
n/a
MPO423398
379705 (2011 FC144)
Discovered 2004-Sep-15 by Spacewatch at Kitt Peak
Reference:
Last Updated:
2013-11-20
[ show close-approach data ]
Alternate Designations
2011 FC144
= 2004 RN285
[
Ephemeris
|
Orbit Diagram
|
Orbital Elements
|
Mission Design
|
Physical Parameters
|
Discovery Circumstances
|
Close-Approach Data
]
2019-Dec-11 17:44 UT
(server date/time)
Site Manager:
Ryan S. Park
Webmaster
:
Alan B. Chamberlin